Location: Fredericksburg
(30.2750°N, 98.8720°W)
Time: 09:04:39
(UTC-05:00)

Amateur Radio Satellites - All Passes

Search period start: 02 September 2014 08:34
Search period end: 03 September 2014 08:34
Location: Fredericksburg, 30.2750°N, 98.8720°W

Satellite Date Start Highest point End Downlink Frequencies (MHz)
Time Altitude Azimuth
Hamsat 02 Sep 08:40:19 08:42:14 13° 292° (WNW) 08:44:09 145.90 MHz
ISS 02 Sep 08:43:26 08:45:41 17° 127° (SE) 08:47:56 145.800 FM
JAS-2 02 Sep 09:04:29 09:07:17 14° 292° (WNW) 09:10:11 435.800 - 435.900 CW/SSB, 435.910 FM
HO-68 02 Sep 09:10:14 09:13:35 14° 94° (E) 09:16:56 435.675 MHz FM
SO-67 02 Sep 09:14:48 09:17:41 25° 286° (WNW) 09:20:34 435.3500 MHz FM
Saudisat 1A 02 Sep 09:32:01 09:34:14 14° 252° (WSW) 09:36:27 436.775 MHz
KITSAT 1 02 Sep 10:10:57 10:18:49 59° 249° (WSW) 10:26:39 435.175 FM
ISS 02 Sep 10:19:17 10:22:13 28° 319° (NW) 10:25:09 145.800 FM
PANSAT 02 Sep 10:24:52 10:28:08 26° 161° (SSE) 10:31:24 not established
UKube-1 02 Sep 10:37:15 10:41:21 41° 100° (E) 10:45:26 145.840 MHz, 145.915 MHz
Oscar 11 02 Sep 10:40:42 10:44:28 28° 97° (E) 10:48:13 145.825 FM, Beacon 2401.500 USB
RS-15 02 Sep 10:48:31 10:55:08 17° 322° (NW) 11:01:45 29.354 - 29.394 USB, Beacon 29.352 USB
HO-68 02 Sep 10:54:38 11:01:47 79° 287° (WNW) 11:08:56 435.675 MHz FM
FUNcube-1 02 Sep 11:14:00 11:17:53 27° 97° (E) 11:21:46 145.950 - 145.970 MHz USB
MaSat-1 02 Sep 11:54:42 11:55:59 11° 99° (E) 11:57:16 437.345 MHz
PANSAT 02 Sep 12:04:14 12:08:03 58° 172° (S) 12:11:51 not established
UKube-1 02 Sep 12:15:10 12:17:08 13° 292° (WNW) 12:19:06 145.840 MHz, 145.915 MHz
Oscar 11 02 Sep 12:17:25 12:20:24 18° 290° (WNW) 12:23:23 145.825 FM, Beacon 2401.500 USB
SO-50 02 Sep 12:35:55 12:40:08 30° 57° (ENE) 12:44:22 436.795 FM
HO-68 02 Sep 12:46:40 12:48:20 11° 302° (WNW) 12:50:01 435.675 MHz FM
FUNcube-1 02 Sep 12:50:35 12:54:03 22° 289° (WNW) 12:57:33 145.950 - 145.970 MHz USB
JAS-1B 02 Sep 13:16:45 13:21:12 14° 61° (ENE) 13:25:26 435.800 - 435.900 CW/SSB
MaSat-1 02 Sep 13:27:32 13:32:14 61° 293° (WNW) 13:37:19 437.345 MHz
Oscar 16 02 Sep 13:30:51 13:34:40 21° 69° (ENE) 13:38:30 437.025 USB, Beacon 2401.1428
PANSAT 02 Sep 13:44:18 13:48:08 63° 185° (S) 13:51:57 not established
Uribyol 2 02 Sep 13:45:50 13:47:42 12° 65° (ENE) 13:49:34 436.500 FM
AO-27 02 Sep 14:04:36 14:08:09 19° 68° (ENE) 14:11:41 436.795 MHz FM
SO-50 02 Sep 14:16:40 14:20:32 24° 250° (WSW) 14:24:24 436.795 FM
UOSAT-12 02 Sep 14:19:42 14:23:37 25° 55° (NE) 14:27:27 437.025 FM, 437.400 FM
Oscar 19 02 Sep 14:33:03 14:38:13 87° 257° (WSW) 14:43:25 437.125 CW, 437.150 USB
AO-Echo 02 Sep 14:37:30 14:42:18 45° 74° (ENE) 14:46:58 ?
Gurwin Techsat 1B 02 Sep 14:48:47 14:52:50 23° 69° (ENE) 14:56:53 435.225 FM
JAS-1B 02 Sep 15:00:41 15:10:31 76° 74° (ENE) 15:19:27 435.800 - 435.900 CW/SSB
Oscar 16 02 Sep 15:09:05 15:13:44 34° 262° (W) 15:18:26 437.025 USB, Beacon 2401.1428
ITAMSAT 1 02 Sep 15:12:12 15:17:22 85° 257° (WSW) 15:22:33 435.822 SSB
Uribyol 2 02 Sep 15:21:29 15:26:34 63° 258° (WSW) 15:31:41 436.500 FM
PANSAT 02 Sep 15:24:38 15:28:06 32° 197° (SSW) 15:31:33 not established
RS-15 02 Sep 15:27:33 15:34:39 18° 39° (NE) 15:41:52 29.354 - 29.394 USB, Beacon 29.352 USB
AO-7 02 Sep 15:33:27 15:38:43 19° 59° (ENE) 15:43:58 29.400 - 29.500 MHz
TMSAT-1 02 Sep 15:37:08 15:42:13 50° 74° (ENE) 15:47:19 436.925 FM
AO-27 02 Sep 15:42:30 15:47:18 39° 261° (W) 15:52:08 436.795 MHz FM
Sapphire 02 Sep 15:46:09 15:49:40 18° 105° (ESE) 15:53:11 437.095 MHz 1200 baud AX-25 AFSK
UOSAT-12 02 Sep 15:59:44 16:03:39 27° 249° (WSW) 16:07:29 437.025 FM, 437.400 FM
PCSat 02 Sep 16:13:38 16:18:34 38° 109° (ESE) 16:23:32 145.825 MHz
AO-Echo 02 Sep 16:18:27 16:21:10 15° 265° (W) 16:23:50 ?
Gurwin Techsat 1B 02 Sep 16:27:47 16:32:32 34° 262° (W) 16:37:19 435.225 FM
ISS 02 Sep 16:52:43 16:55:12 19° 38° (NE) 16:57:40 145.800 FM
JAS-1B 02 Sep 16:54:15 17:01:12 22° 265° (W) 17:07:50 435.800 - 435.900 CW/SSB
Uosat F 02 Sep 17:08:53 17:13:52 76° 76° (ENE) 17:18:52 435.120 FM
OPAL 02 Sep 17:10:02 17:13:44 20° 97° (E) 17:17:24 ?
TMSAT-1 02 Sep 17:19:31 17:22:20 14° 266° (W) 17:25:09 436.925 FM
AO-7 02 Sep 17:22:12 17:30:32 80° 254° (WSW) 17:38:54 29.400 - 29.500 MHz
Sapphire 02 Sep 17:27:31 17:32:39 45° 298° (WNW) 17:37:49 437.095 MHz 1200 baud AX-25 AFSK
JAS-2 02 Sep 17:27:45 17:29:43 12° 67° (ENE) 17:31:38 435.800 - 435.900 CW/SSB, 435.910 FM
RS-15 02 Sep 17:37:52 17:49:04 75° 62° (ENE) 18:00:45 29.354 - 29.394 USB, Beacon 29.352 USB
Hamsat 02 Sep 17:51:46 17:54:12 15° 69° (ENE) 17:56:38 145.90 MHz
PCSat 02 Sep 17:57:50 18:02:01 23° 303° (WNW) 18:06:15 145.825 MHz
ISS 02 Sep 18:29:01 18:31:55 28° 231° (SW) 18:34:49 145.800 FM
OPAL 02 Sep 18:47:51 18:52:39 38° 290° (WNW) 18:57:24 ?
JAS-2 02 Sep 19:08:03 19:14:21 73° 258° (WSW) 19:19:57 435.800 - 435.900 CW/SSB, 435.910 FM
AO-7 02 Sep 19:22:54 19:24:09 10° 267° (W) 19:25:24 29.400 - 29.500 MHz
Hamsat 02 Sep 19:25:52 19:29:48 35° 262° (W) 19:33:46 145.90 MHz
SO-67 02 Sep 19:41:47 19:44:57 35° 75° (ENE) 19:48:08 435.3500 MHz FM
RS-15 02 Sep 19:52:19 20:00:21 23° 257° (WSW) 20:08:41 29.354 - 29.394 USB, Beacon 29.352 USB
STRAND 1 02 Sep 20:36:35 20:41:39 68° 285° (WNW) 20:46:43 ?
HO-68 02 Sep 21:16:51 21:23:30 44° 69° (ENE) 21:30:10 435.675 MHz FM
UKube-1 02 Sep 21:28:16 21:31:11 18° 69° (ENE) 21:34:06 145.840 MHz, 145.915 MHz
Oscar 11 02 Sep 21:32:29 21:33:55 12° 68° (ENE) 21:35:21 145.825 FM, Beacon 2401.500 USB
Saudisat 1A 02 Sep 21:51:49 21:55:57 42° 113° (ESE) 22:00:06 436.775 MHz
KITSAT 1 02 Sep 22:37:49 22:45:04 38° 107° (ESE) 22:52:20 435.175 FM
UKube-1 02 Sep 23:03:22 23:07:08 29° 262° (W) 23:10:54 145.840 MHz, 145.915 MHz
HO-68 02 Sep 23:05:22 23:11:14 28° 262° (W) 23:17:08 435.675 MHz FM
Oscar 11 02 Sep 23:05:29 23:09:38 46° 261° (W) 23:13:49 145.825 FM, Beacon 2401.500 USB
MaSat-1 02 Sep 23:28:01 23:32:14 84° 250° (WSW) 23:35:47 437.345 MHz
Saudisat 1A 02 Sep 23:33:05 23:35:41 15° 308° (NW) 23:38:18 436.775 MHz
FUNcube-1 02 Sep 23:40:35 23:44:37 49° 260° (W) 23:48:44 145.950 - 145.970 MHz USB
KITSAT 1 03 Sep 00:32:53 00:40:18 39° 303° (WNW) 00:47:47 435.175 FM
Oscar 16 03 Sep 01:50:02 01:51:40 11° 93° (E) 01:53:18 437.025 USB, Beacon 2401.1428
Sapphire 03 Sep 02:21:09 02:26:17 42° 62° (ENE) 02:31:23 437.095 MHz 1200 baud AX-25 AFSK
AO-40 03 Sep 02:27:47 03:42:32 20° 240° (WSW) 05:53:19 Beacon 2401.320
SO-50 03 Sep 02:45:32 02:49:30 33° 112° (ESE) 02:53:32 436.795 FM
PCSat 03 Sep 02:50:01 02:55:28 88° 66° (ENE) 03:00:52 145.825 MHz
Oscar 19 03 Sep 02:50:41 02:55:46 54° 101° (E) 03:00:48 437.125 CW, 437.150 USB
AO-Echo 03 Sep 02:51:06 02:54:45 22° 97° (E) 02:58:26 ?
JAS-1B 03 Sep 02:56:31 03:01:09 22° 94° (E) 03:05:31 435.800 - 435.900 CW/SSB
Gurwin Techsat 1B 03 Sep 03:11:42 03:14:24 14° 94° (E) 03:17:06 435.225 FM
Oscar 16 03 Sep 03:26:11 03:31:18 61° 285° (WNW) 03:36:23 437.025 USB, Beacon 2401.1428
ITAMSAT 1 03 Sep 03:31:01 03:36:08 57° 101° (E) 03:41:13 435.822 SSB
Uribyol 2 03 Sep 03:39:59 03:45:12 77° 102° (ESE) 03:50:24 436.500 FM
TMSAT-1 03 Sep 03:59:08 04:03:52 33° 98° (E) 04:08:34 436.925 FM
AO-27 03 Sep 04:01:00 04:06:09 68° 285° (WNW) 04:11:18 436.795 MHz FM
Sapphire 03 Sep 04:05:36 04:09:19 19° 255° (WSW) 04:13:01 437.095 MHz 1200 baud AX-25 AFSK
OPAL 03 Sep 04:19:52 04:23:19 19° 66° (ENE) 04:26:47 ?
UOSAT-12 03 Sep 04:25:26 04:29:15 27° 111° (ESE) 04:33:09 437.025 FM, 437.400 FM
SO-50 03 Sep 04:26:54 04:30:05 19° 307° (NW) 04:33:20 436.795 FM
AO-Echo 03 Sep 04:29:31 04:33:26 27° 289° (WNW) 04:37:25 ?
Oscar 19 03 Sep 04:32:00 04:34:35 14° 294° (WNW) 04:37:09 437.125 CW, 437.150 USB
JAS-1B 03 Sep 04:46:22 04:51:58 35° 291° (WNW) 04:57:05 435.800 - 435.900 CW/SSB
Gurwin Techsat 1B 03 Sep 04:49:26 04:54:34 52° 286° (WNW) 04:59:41 435.225 FM
ITAMSAT 1 03 Sep 05:12:38 05:15:05 13° 294° (WNW) 05:17:31 435.822 SSB
Uosat F 03 Sep 05:22:42 05:27:20 37° 99° (E) 05:31:57 435.120 FM
AO-7 03 Sep 05:30:33 05:38:34 52° 103° (ESE) 05:46:32 29.400 - 29.500 MHz
TMSAT-1 03 Sep 05:39:26 05:43:32 24° 291° (WNW) 05:47:39 436.925 FM
RS-15 03 Sep 05:48:23 05:53:48 15° 101° (E) 05:59:08 29.354 - 29.394 USB, Beacon 29.352 USB
OPAL 03 Sep 05:57:07 06:01:49 40° 259° (W) 06:06:37 ?
UOSAT-12 03 Sep 06:05:33 06:09:18 24° 305° (NW) 06:13:08 437.025 FM, 437.400 FM
JAS-2 03 Sep 06:23:57 06:27:26 17° 97° (E) 06:31:07 435.800 - 435.900 CW/SSB, 435.910 FM
Uosat F 03 Sep 07:02:23 07:05:47 19° 292° (WNW) 07:09:12 435.120 FM
Hamsat 03 Sep 07:17:01 07:21:18 63° 100° (E) 07:25:32 145.90 MHz
AO-7 03 Sep 07:24:07 07:30:52 29° 297° (WNW) 07:37:37 29.400 - 29.500 MHz
STRAND 1 03 Sep 07:46:40 07:51:45 86° 257° (WSW) 07:56:52 ?
RS-15 03 Sep 07:53:24 08:04:37 87° 115° (ESE) 08:15:34 29.354 - 29.394 USB, Beacon 29.352 USB
Saudisat 1A 03 Sep 08:03:01 08:07:26 88° 62° (ENE) 08:11:49 436.775 MHz
JAS-2 03 Sep 08:07:23 08:12:34 48° 286° (WNW) 08:18:18 435.800 - 435.900 CW/SSB, 435.910 FM
